Regional Weather Roundup
Issued by NWS Wilmington, NC

Home | Current Version | Previous Version | Text Only | Print | Product List | Glossary On
Versions: 1 2 3 4 5 6 7 8 9 10 11 12 13 14 15 16 17 18 19 20 21 22 23 24 25 26 27 28 29 30 31 32 33 34 35 36 37 38 39 40 41 42 43 44 45 46 47 48 49 50
000
ASUS42 KILM 012210
RWRILM
RWRILM
REGIONAL HOURLY WEATHER ROUNDUP
NATIONAL WEATHER SERVICE WILMINGTON NC
600 PM EDT MON SEP 01 2014

NOTE: "FAIR" INDICATES FEW OR NO CLOUDS BELOW 12,000 FEET WITH NO
SIGNIFICANT WEATHER AND/OR OBSTRUCTIONS TO VISIBILITY.

...............WFO WILMINGTON COUNTY WARNING AREA...............

......COASTAL NC AND SC COUNTIES......

CITY           SKY/WX    TMP DP  RH WIND       PRES   REMARKS
WILMINGTON     PTSUNNY   87  75  67 S12       30.04F HX  96
SOUTHPORT      SUNNY     85  75  74 S6        30.07R HX  93
N MYRTLE BEACH MOSUNNY   85  76  74 S15       30.06S HX  94
MYRTLE BEACH   MOSUNNY   86  75  70 S12       30.06S HX  95

......INLAND NC AND SC COUNTIES.......

CITY           SKY/WX    TMP DP  RH WIND       PRES   REMARKS
LUMBERTON      MOSUNNY   91  73  55 S7        30.01F HX  99
ELIZABETHTOWN  MOSUNNY   92  72  51 S6        30.03F HX  99
WHITEVILLE     MOSUNNY   88  76  68 S9        30.04S HX  98
FLORENCE       MOSUNNY   95  68  41 S12       30.03R HX  99
DARLINGTON     MOSUNNY   93  66  40 SW3       30.03R HX  96

....................REST OF NORTH CAROLINA......................

.........EASTERN NC.........

CITY           SKY/WX    TMP DP  RH WIND       PRES   REMARKS
CAPE HATTERAS  SUNNY     82  77  84 SW13G22   30.05F HX  90
JACKSONVILLE   PTSUNNY   88  75  66 S13       30.04S HX  97
MOREHEAD CITY  MOSUNNY   84  75  74 SW14      30.06S HX  92
KENANSVILLE    MOSUNNY   88  73  59 CALM      30.04R HX  96
NEW BERN       MOSUNNY   88  75  65 SW10      30.05R HX  97
ELIZABETH CITY MOSUNNY   88  73  61 SW7       30.01R HX  95

.........CENTRAL NC.........

CITY           SKY/WX    TMP DP  RH WIND       PRES   REMARKS
RALEIGH DURHAM PTSUNNY   87  71  58 CALM      30.03F HX  93
ROCKY MOUNT    PTSUNNY   90  74  59 S6        30.02S HX  99
ROANOKE RAPIDS NOT AVBL
FAYETTEVILLE   PTSUNNY   92  71  50 SE6       30.01S HX  98
HOFFMAN        MOSUNNY   96  59  28 NW6       30.04S HX  96

.........WESTERN NC.........

CITY           SKY/WX    TMP DP  RH WIND       PRES   REMARKS
CHARLOTTE      PTSUNNY   90  64  42 SW6       30.05F HX  91
GREENSBORO     MOSUNNY   91  61  36 W9        30.05S HX  91
HICKORY        NOT AVBL
BOONE          NOT AVBL
ASHEVILLE      NOT AVBL

.....................REST OF SOUTH CAROLINA.....................

.........EASTERN SC.........

CITY           SKY/WX    TMP DP  RH WIND       PRES   REMARKS
CHARLESTON     PTSUNNY   88  74  63 S10       30.07R HX  96
BEAUFORT MCAS  MOSUNNY   87  75  67 SW6       30.05S HX  96
HILTON HEAD    NOT AVBL

.........CENTRAL SC.........

CITY           SKY/WX    TMP DP  RH WIND       PRES   REMARKS
COLUMBIA       PTSUNNY   92  69  47 W6        30.04R HX  97
ORANGEBURG     PTSUNNY   91  72  53 VRB5      30.04R HX  98
SUMTER SHAW    MOSUNNY   94  71  47 S8        30.02S HX 100

.........WESTERN SC.........

CITY           SKY/WX    TMP DP  RH WIND       PRES   REMARKS
GREENVILLE     NOT AVBL
ROCK HILL      MOSUNNY   90  65  43 CALM      30.06S HX  92
ANDERSON       MOSUNNY   90  66  45 W6        30.06F HX  92
CLEMSON        NOT AVBL
GREENWOOD      MOSUNNY   92  64  39 VRB3      30.07S HX  93


...................COASTAL AND OFFSHORE REPORTS..................

................LOCAL PIERS AND NC RESERVE................


STATION/POSITION TIME  SKY/WX   TEMP    WIND        PRES    VSBY
                                AIR SEA DIR/SP/G
                 (UTC)          (F)     (DEG/KT/KT) (MB)    (MI)
JOHNY MRCER PIER 2200            83 85  190/ 18/ 19 1017.1F
NC RESRV MASNBRO 2100            85     180/  9     1017.0F
OCEAN CREST PIER 2200            84 86  160/ 12/ 14 1017.1S
SPRINGMAID  PIER 2200            83 85  180/ 15/ 16 1018.1R


................COASTAL AND OFFSHORE BUOYS................


STATION/POSITION TIME  SKY/WX   TEMP    WIND        PRES    VSBY
                                AIR SEA DIR/SP/G
                 (UTC)          (F)     (DEG/KT/KT) (MB)    (MI)
DIMNDSHOAL 41025 2200            82     200/ 16/ 17 1017.8S
WVE H/P(F/S)=  3/ 8 WND WVE H/P(F/S)=  3/ 4 SWL H/P/D(F/S/D)=  2/130/ 8

CAPE LOOKOUT     2100            84     200/ 11/ 13 1018.0F
ONSLOW BAY 41036 2200            83 83  210/ 12/ 14 1018.1F
WVE H/P(F/S)=  2/ 8 WND WVE H/P(F/S)=  2/ 5 SWL H/P/D(F/S/D)=  2/100/ 8

5 WRITEBCH 41038 2100            80 84  210/ 16/ 17   N/A
MASONBORO  41110 2200               84                N/A
WVE H/P(F/S)=  3/ 9 WND WVE H/P(F/S)=  3/ 9

WILM HARBR 41108 2200               84                N/A
WVE H/P(F/S)=  2/ 8 WND WVE H/P(F/S)=  2/ 8

27WRITEBCH 41037 NOT AVBL
FRYING PAN 41013 NOT AVBL
SUNST NRSH 41024 2100            84     200/ 14/ 16 1017.6F
CAPRS NRSH 41029 2100            84     170/ 10/ 12   N/A
EDISTO     41004 2200            83 85  160/ 10/ 10 1018.0S
WVE H/P(F/S)=  2/ 9 WND WVE H/P(F/S)=  2/ 4 SWL H/P/D(F/S/D)=  2/ 9



..........OFFSHORE BUOYS BEYOND 100 NM OFFSHORE...........
.....IN A TRIANGLE---HAT TO BERMUDA TO BAHAMAS TO HAT.....


STATION/POSITION TIME  SKY/WX   TEMP    WIND        PRES    VSBY
                                AIR SEA DIR/SP/G
                 (UTC)          (F)     (DEG/KT/KT) (MB)    (MI)
150E HAT   41001 NOT AVBL
W BERMUDA  41048 2130            80 83  310/  4/  6 1020.3S
WVE H/P(F/S)=  4/10 SWL H/P/D(F/S/D)=  3/ 70/10

ATLANTIC S 41049 2146            84 85   90/ 10/ 10 1019.9R
WVE H/P(F/S)=  5/11 WND WVE H/P(F/S)=  2/ 4 SWL H/P/D(F/S/D)=  5/ 30/11

E BAHAMAS  41046 2112            83 85   90/ 12/ 14 1017.1F
WVE H/P(F/S)=  4/ 8 WND WVE H/P(F/S)=  2/ 5 SWL H/P/D(F/S/D)=  3/ 90/ 8

NE BAHAMAS 41047 2145            81 85  100/ 12/ 14 1019.2F
WVE H/P(F/S)=  4/ 8 WND WVE H/P(F/S)=  2/ 5 SWL H/P/D(F/S/D)=  3/100/ 8

120E CANVRL41010 2200            83 86  100/  4/  6 1018.9F
WVE H/P(F/S)=  2/ 8 SWL H/P/D(F/S/D)=  2/ 80/ 8


END


USA.gov is the U.S. government's official web portal to all federal, state and local government web resources and services.